GFSNGP_prec_pwat_132.txt.gz
Precipitable_Water
0.40 0.50 0.51 0.55 0.52 0.59 0.55 0.59 0.56 0.58 0.58 0.84 0.95 1.30 1.13 1.24 1.16 1.21 1.30 1.51 1.59 1.80 1.87 1.76 1.96 1.73 1.57 1.65 1.57 2.09 1.71 1.66 1.67 1.68 1.68 1.58 1.58 1.57 1.59 1.57 1.55 1.59 1.62 1.65
0.36 0.37 0.37 0.43 0.54 0.49 0.55 0.56 0.80 0.74 0.71 0.91 0.95 1.10 1.14 1.14 1.18 1.19 1.29 1.45 1.55 1.68 1.49 1.72 1.85 1.77 1.80 1.72 1.85 1.75 1.68 1.80 1.91 1.83 1.79 1.78 1.76 1.83 1.83 1.79 1.77 1.79 1.79 1.85
0.36 0.45 0.49 0.37 0.49 0.45 0.50 0.57 0.85 0.71 0.75 0.89 0.87 1.02 1.20 1.08 1.12 1.19 1.26 1.41 1.57 1.64 1.72 1.77 1.84 1.91 1.90 1.95 2.03 1.85 1.80 1.81 1.82 1.82 1.81 1.91 1.93 1.86 1.84 1.85 1.82 1.83 1.85 1.94
0.33 0.35 0.27 0.38 0.51 0.55 0.55 0.58 0.63 0.73 0.82 0.82 0.92 1.09 1.22 1.21 1.16 1.21 1.29 1.41 1.52 1.60 1.61 1.64 1.79 1.81 1.98 2.07 2.03 1.98 1.91 1.82 1.86 1.86 1.83 1.95 2.01 1.84 1.83 1.85 1.82 1.92 1.93 1.94
0.27 0.28 0.31 0.33 0.46 0.51 0.52 0.48 0.54 0.61 0.89 0.89 0.90 0.92 0.99 1.19 1.27 1.23 1.26 1.36 1.42 1.55 1.65 1.62 1.62 1.76 1.78 1.95 2.02 1.99 1.96 1.98 1.97 1.95 1.95 2.02 1.98 2.02 1.98 1.95 1.98 2.03 2.05 2.06
0.29 0.26 0.23 0.41 0.59 0.59 0.50 0.33 0.69 0.63 0.72 0.95 0.95 0.77 1.00 1.20 1.23 1.30 1.33 1.35 1.36 1.45 1.55 1.60 1.63 1.69 1.70 1.84 1.82 1.81 1.96 1.88 1.90 1.99 2.03 2.05 2.10 2.07 2.14 2.09 1.90 1.91 1.82 1.90
0.32 0.28 0.29 0.54 0.64 0.61 0.34 0.48 0.74 0.61 0.62 0.66 0.84 1.29 1.21 1.22 1.18 1.27 1.34 1.39 1.45 1.42 1.44 1.51 1.61 1.69 1.71 1.79 1.84 1.93 2.00 1.93 1.96 2.01 2.02 2.02 2.00 1.97 1.89 1.80 1.78 1.74 1.76 1.81
0.37 0.30 0.27 0.66 0.60 0.46 0.63 0.66 0.66 0.67 0.68 0.71 0.96 1.18 1.25 1.24 1.20 1.20 1.23 1.31 1.37 1.36 1.42 1.56 1.63 1.63 1.62 1.65 1.81 1.87 1.85 1.82 1.82 1.86 1.82 1.75 1.72 1.72 1.75 1.77 1.78 1.80 1.81 1.79
0.39 0.40 0.59 0.70 0.67 0.66 0.62 0.58 0.52 0.57 0.75 1.20 0.80 0.79 0.93 1.20 1.18 1.22 1.25 1.25 1.29 1.27 1.32 1.43 1.51 1.55 1.50 1.59 1.71 1.72 1.62 1.61 1.61 1.67 1.72 1.77 1.71 1.64 1.59 1.61 1.54 1.47 1.45 1.50
0.41 0.41 0.48 0.49 0.57 0.62 0.62 0.58 0.57 0.57 0.77 0.98 0.87 0.92 0.92 1.06 1.09 1.14 1.19 1.23 1.30 1.26 1.19 1.23 1.33 1.36 1.40 1.44 1.52 1.52 1.48 1.47 1.48 1.52 1.59 1.62 1.59 1.57 1.55 1.50 1.43 1.38 1.41 1.46
0.47 0.49 0.49 0.49 0.50 0.62 0.57 0.61 0.61 0.63 0.91 0.84 0.96 0.90 0.96 1.00 1.07 1.10 1.13 1.19 1.26 1.26 1.16 1.16 1.27 1.31 1.35 1.41 1.43 1.39 1.40 1.40 1.41 1.44 1.46 1.45 1.50 1.52 1.53 1.52 1.48 1.43 1.44 1.45
0.36 0.47 0.53 0.56 0.72 0.73 0.78 0.81 0.75 0.75 0.97 0.89 0.94 0.98 1.01 1.00 1.02 1.04 1.07 1.09 1.13 1.19 1.20 1.16 1.16 1.23 1.32 1.37 1.38 1.34 1.30 1.34 1.37 1.40 1.41 1.38 1.36 1.37 1.45 1.44 1.43 1.43 1.44 1.42
0.43 0.48 0.50 0.58 0.74 0.76 0.71 0.80 0.79 0.96 0.89 0.94 0.94 0.97 1.00 0.98 0.97 1.01 1.01 1.03 1.03 1.07 1.19 1.18 1.18 1.20 1.21 1.15 1.21 1.18 1.14 1.14 1.15 1.22 1.26 1.26 1.24 1.23 1.19 1.28 1.31 1.30 1.29 1.27
0.58 0.56 0.48 0.60 0.68 0.90 0.87 0.93 0.82 0.88 0.89 0.89 0.91 0.97 1.00 0.91 0.91 0.92 0.95 0.98 1.03 1.03 1.00 1.07 1.04 1.06 1.12 1.12 1.08 0.98 0.94 0.95 0.96 0.94 0.91 0.92 0.92 0.92 0.93 0.90 0.84 0.84 0.90 0.89
0.58 0.59 0.57 0.72 0.70 0.69 0.87 0.98 0.78 0.83 0.84 0.86 0.91 0.90 0.89 0.87 0.91 0.91 0.94 0.95 0.93 0.94 0.93 0.91 0.91 0.92 1.04 1.09 1.02 0.96 0.95 0.90 0.88 0.90 0.91 0.90 0.91 0.90 0.87 0.83 0.79 0.74 0.72 0.70
0.64 0.56 0.66 0.68 0.69 0.74 0.76 0.93 0.77 0.78 0.81 0.82 0.83 0.87 0.86 0.85 0.86 0.88 0.90 0.91 0.88 0.89 0.96 0.97 0.96 0.97 1.00 0.97 0.93 0.89 0.86 0.84 0.84 0.83 0.81 0.83 0.81 0.79 0.75 0.70 0.63 0.59 0.55 0.50
0.60 0.49 0.65 0.62 0.67 0.86 0.84 0.82 0.82 0.82 0.86 0.83 0.79 0.83 0.81 0.80 0.81 0.90 0.97 0.99 0.99 0.93 0.90 0.83 0.75 0.75 0.75 0.74 0.74 0.67 0.57 0.56 0.60 0.61 0.60 0.58 0.58 0.59 0.60 0.58 0.58 0.60 0.59 0.51
0.65 0.64 0.68 0.63 0.60 0.87 0.92 0.74 0.79 0.84 0.81 0.81 0.82 0.82 0.76 0.74 0.77 0.87 0.88 0.86 0.81 0.75 0.76 0.79 0.79 0.79 0.79 0.77 0.80 0.74 0.68 0.63 0.61 0.62 0.60 0.57 0.58 0.59 0.58 0.59 0.62 0.63 0.63 0.61
0.64 0.62 0.64 0.68 0.67 0.96 0.92 0.78 0.81 0.84 0.83 0.78 0.71 0.69 0.74 0.76 0.81 0.81 0.82 0.73 0.71 0.70 0.73 0.77 0.74 0.71 0.73 0.74 0.74 0.77 0.80 0.77 0.75 0.73 0.68 0.65 0.61 0.61 0.66 0.67 0.67 0.68 0.68 0.67
0.68 0.63 0.64 0.65 0.80 0.78 0.80 0.83 0.87 0.79 0.77 0.76 0.72 0.70 0.67 0.70 0.77 0.76 0.73 0.68 0.70 0.78 0.87 0.84 0.80 0.72 0.71 0.85 0.81 0.73 0.82 0.84 0.83 0.78 0.80 0.80 0.75 0.70 0.71 0.70 0.68 0.71 0.75 0.76
0.62 0.63 0.57 0.61 0.67 0.93 0.86 0.80 0.76 0.74 0.75 0.72 0.67 0.63 0.59 0.63 0.68 0.73 0.68 0.65 0.72 0.83 0.90 0.92 0.90 0.90 0.98 1.00 0.98 0.93 0.85 0.78 0.80 0.84 0.85 0.81 0.81 0.76 0.79 0.81 0.79 0.79 0.80 0.77
0.62 0.58 0.61 0.64 0.69 0.81 0.84 0.77 0.73 0.75 0.73 0.69 0.68 0.67 0.71 0.72 0.73 0.74 0.76 0.76 0.88 0.90 0.89 0.93 1.03 0.95 0.91 0.95 0.97 0.94 0.90 0.88 0.86 0.85 0.86 0.86 0.81 0.81 0.79 0.79 0.79 0.83 0.82 0.83
0.59 0.59 0.66 0.73 0.73 0.75 0.82 0.78 0.73 0.74 0.71 0.70 0.69 0.75 0.80 0.83 0.88 0.81 0.77 0.83 0.81 0.94 0.91 1.04 0.97 0.90 0.87 0.78 0.74 0.77 0.81 0.83 0.85 0.89 0.92 0.88 0.86 0.83 0.78 0.80 0.79 0.82 0.84 0.78
0.64 0.62 0.63 0.75 0.79 0.75 0.74 0.78 0.85 0.84 0.84 0.85 0.85 0.84 0.82 0.84 0.85 0.96 0.96 0.96 0.92 0.91 0.86 1.00 0.92 0.88 0.90 0.82 0.84 0.88 0.85 0.83 0.80 0.79 0.83 0.83 0.90 0.88 0.87 0.87 0.84 0.78 0.73 0.64
0.65 0.64 0.61 0.67 0.71 0.70 0.75 0.78 0.76 0.88 0.91 0.89 0.89 0.93 0.93 0.91 0.88 0.91 0.86 0.87 0.88 0.90 0.93 0.94 0.90 0.88 0.91 0.88 0.88 0.88 0.86 0.85 0.83 0.81 0.77 0.71 0.72 0.75 0.74 0.77 0.75 0.69 0.61 0.55
0.65 0.65 0.65 0.65 0.71 0.75 0.79 0.80 0.73 0.72 0.76 0.86 0.90 0.90 0.97 0.98 0.92 0.85 0.85 0.87 0.91 0.95 0.97 0.93 0.89 0.87 0.93 0.92 0.91 0.92 0.96 0.94 0.92 0.81 0.73 0.71 0.69 0.68 0.70 0.70 0.65 0.63 0.59 0.54
0.72 0.70 0.68 0.69 0.70 0.74 0.76 0.73 0.76 0.77 0.78 0.80 0.85 0.91 0.90 0.88 0.90 0.90 0.83 0.91 0.93 0.93 0.96 0.94 0.95 0.95 0.97 0.95 0.93 0.97 0.97 0.89 0.87 0.88 0.80 0.86 0.82 0.77 0.70 0.64 0.64 0.61 0.59 0.55

GFSNGP_prec_pwat_135.txt.gz
Precipitable_Water
0.38 0.42 0.48 0.48 0.47 0.57 0.54 0.55 0.48 0.55 0.65 0.84 0.96 0.98 1.07 1.29 1.41 1.34 1.31 1.52 1.59 1.62 1.66 1.75 1.79 1.79 2.02 1.74 1.63 1.69 1.71 1.72 1.45 1.50 1.53 1.50 1.46 1.46 1.53 1.54 1.56 1.53 1.53 1.67
0.36 0.44 0.44 0.40 0.49 0.54 0.54 0.58 0.57 0.62 0.69 0.92 1.00 1.03 1.04 1.14 1.24 1.26 1.32 1.35 1.54 1.63 1.66 1.70 1.66 1.67 2.03 1.92 1.75 1.43 1.66 1.95 1.63 1.62 1.63 1.59 1.58 1.54 1.59 1.67 1.73 1.78 1.77 1.79
0.31 0.44 0.42 0.41 0.48 0.49 0.56 0.66 0.64 0.56 0.68 0.88 0.85 0.90 0.98 1.06 1.13 1.16 1.34 1.38 1.40 1.40 1.51 1.65 1.68 1.77 1.97 2.14 1.98 1.66 1.80 2.00 2.00 1.87 1.84 1.76 1.81 1.82 1.84 1.86 1.95 1.91 1.90 1.91
0.29 0.33 0.27 0.39 0.54 0.46 0.57 0.69 0.73 0.69 0.76 0.82 0.90 1.00 1.06 1.12 1.00 1.24 1.35 1.43 1.52 1.52 1.45 1.54 1.77 1.84 1.90 2.14 2.14 2.14 1.87 2.16 2.04 1.89 1.84 1.85 1.85 1.81 1.89 1.96 1.93 1.85 1.88 1.90
0.27 0.24 0.27 0.33 0.53 0.51 0.51 0.63 0.79 0.74 0.78 0.79 0.86 0.90 0.89 1.07 1.19 1.21 1.37 1.49 1.58 1.61 1.57 1.60 1.66 1.76 1.79 1.85 1.97 1.99 2.01 2.03 2.00 1.99 1.95 1.95 1.89 1.80 1.83 1.94 2.01 1.96 1.92 1.92
0.29 0.25 0.24 0.49 0.58 0.63 0.55 0.48 0.82 0.80 0.74 0.72 0.78 0.55 0.76 1.10 1.23 1.27 1.35 1.40 1.49 1.54 1.56 1.57 1.56 1.65 1.71 1.71 1.91 1.97 1.94 1.91 1.91 1.92 1.91 1.92 1.94 1.93 1.97 2.05 2.05 2.02 1.99 1.90
0.35 0.28 0.29 0.60 0.66 0.64 0.36 0.54 0.80 0.79 0.75 0.68 0.61 0.64 0.87 1.13 1.18 1.33 1.38 1.43 1.49 1.48 1.51 1.56 1.65 1.63 1.60 1.75 1.78 1.90 2.02 1.92 1.90 1.98 1.99 2.02 2.06 2.04 1.96 1.86 1.81 1.77 1.75 1.76
0.42 0.37 0.35 0.63 0.63 0.55 0.68 0.75 0.82 0.79 0.74 0.69 0.64 0.64 0.77 0.86 0.98 1.18 1.29 1.35 1.43 1.44 1.47 1.58 1.59 1.58 1.59 1.71 1.83 1.92 1.95 1.95 1.91 1.92 1.95 1.94 1.84 1.73 1.71 1.66 1.65 1.66 1.69 1.70
0.44 0.44 0.58 0.65 0.60 0.64 0.67 0.67 0.72 0.77 0.82 0.80 0.72 0.62 0.77 0.80 0.95 1.14 1.22 1.23 1.25 1.29 1.40 1.52 1.62 1.65 1.58 1.65 1.77 1.80 1.82 1.76 1.76 1.73 1.71 1.71 1.67 1.69 1.64 1.62 1.54 1.46 1.40 1.40
0.48 0.48 0.50 0.53 0.55 0.61 0.63 0.59 0.62 0.74 0.78 0.83 0.73 0.63 0.60 0.84 0.96 1.05 1.12 1.20 1.27 1.23 1.22 1.30 1.45 1.54 1.59 1.63 1.60 1.64 1.59 1.56 1.57 1.51 1.49 1.53 1.61 1.64 1.57 1.53 1.46 1.42 1.35 1.33
0.50 0.54 0.56 0.57 0.58 0.56 0.63 0.66 0.64 0.66 0.84 0.83 0.88 0.78 0.81 0.84 0.92 1.00 1.08 1.15 1.20 1.20 1.21 1.23 1.35 1.38 1.42 1.47 1.47 1.41 1.41 1.44 1.45 1.46 1.45 1.44 1.45 1.46 1.48 1.51 1.48 1.43 1.42 1.38
0.42 0.50 0.47 0.49 0.59 0.63 0.60 0.61 0.69 0.68 0.84 1.17 1.11 0.96 0.90 0.97 0.98 1.01 1.01 1.09 1.12 1.15 1.17 1.24 1.32 1.28 1.33 1.41 1.42 1.38 1.36 1.37 1.38 1.39 1.41 1.42 1.40 1.38 1.43 1.42 1.42 1.43 1.44 1.42
0.47 0.51 0.51 0.55 0.59 0.62 0.59 0.62 0.66 0.71 0.77 1.31 1.12 1.03 0.94 0.97 0.99 0.96 0.97 1.02 1.06 1.05 1.09 1.18 1.16 1.18 1.32 1.35 1.32 1.33 1.32 1.33 1.33 1.32 1.33 1.29 1.30 1.28 1.22 1.27 1.30 1.29 1.30 1.25
0.54 0.50 0.44 0.51 0.51 0.66 0.69 0.73 0.73 0.82 0.81 1.17 0.94 0.95 0.93 0.93 0.91 0.90 0.90 0.94 1.02 1.04 1.06 1.09 1.16 1.17 1.15 1.16 1.18 1.12 1.10 1.01 0.96 1.00 1.03 1.04 1.02 0.98 0.91 0.84 0.80 0.83 0.88 0.85
0.54 0.60 0.57 0.62 0.64 0.71 0.81 0.85 0.71 0.86 1.13 0.94 0.86 0.86 0.88 0.83 0.80 0.87 0.95 0.97 0.96 0.93 0.94 0.93 0.91 1.03 1.08 1.00 0.94 1.02 1.04 1.02 0.98 0.95 0.92 0.92 0.94 0.94 0.92 0.85 0.77 0.74 0.73 0.74
0.58 0.62 0.66 0.58 0.63 0.71 0.79 0.79 0.70 0.98 0.99 0.88 0.89 0.84 0.78 0.74 0.82 0.89 0.94 0.96 0.89 0.84 0.86 0.87 0.86 0.92 0.99 1.09 1.07 1.00 0.98 0.92 0.90 0.89 0.88 0.88 0.89 0.90 0.85 0.76 0.67 0.58 0.53 0.49
0.53 0.55 0.62 0.56 0.66 0.67 0.62 0.72 0.83 1.00 0.84 0.80 0.79 0.84 0.87 0.83 0.75 0.78 0.83 0.90 0.95 0.96 1.00 0.98 0.93 0.97 0.96 0.94 0.95 0.80 0.77 0.77 0.77 0.75 0.74 0.70 0.67 0.66 0.67 0.67 0.65 0.61 0.60 0.59
0.65 0.68 0.63 0.63 0.63 0.64 0.67 0.70 0.73 0.91 0.99 0.80 0.80 0.78 0.75 0.71 0.69 0.77 0.89 0.98 1.02 0.97 0.86 0.77 0.69 0.67 0.73 0.78 0.82 0.80 0.72 0.67 0.65 0.65 0.61 0.58 0.61 0.59 0.57 0.59 0.61 0.61 0.61 0.61
0.55 0.66 0.65 0.66 0.67 0.68 0.73 0.68 0.77 0.83 0.84 0.84 0.83 0.79 0.76 0.76 0.75 0.87 0.93 0.86 0.81 0.70 0.71 0.78 0.74 0.73 0.73 0.79 0.79 0.78 0.77 0.72 0.74 0.76 0.73 0.68 0.62 0.61 0.63 0.62 0.64 0.66 0.65 0.65
0.59 0.65 0.69 0.68 0.70 0.70 0.70 0.77 0.85 0.89 0.86 0.81 0.72 0.65 0.68 0.76 0.77 0.80 0.83 0.75 0.71 0.68 0.79 0.80 0.77 0.65 0.71 0.76 0.76 0.77 0.79 0.82 0.84 0.82 0.80 0.77 0.74 0.67 0.64 0.68 0.73 0.76 0.76 0.77
0.61 0.68 0.67 0.67 0.64 0.70 0.83 0.81 0.83 0.83 0.81 0.78 0.67 0.58 0.59 0.66 0.76 0.76 0.71 0.64 0.67 0.80 0.87 0.89 0.82 0.80 0.79 0.81 0.80 0.76 0.83 0.84 0.81 0.83 0.83 0.83 0.83 0.80 0.80 0.78 0.79 0.78 0.78 0.78
0.57 0.63 0.61 0.62 0.65 0.68 0.83 0.82 0.78 0.75 0.74 0.72 0.69 0.59 0.56 0.56 0.64 0.71 0.71 0.62 0.68 0.80 0.84 0.83 0.86 0.97 0.98 0.97 0.98 0.91 0.87 0.88 0.85 0.89 0.87 0.86 0.85 0.84 0.82 0.78 0.78 0.79 0.82 0.82
0.56 0.59 0.58 0.61 0.64 0.79 0.87 0.81 0.77 0.74 0.69 0.67 0.61 0.57 0.58 0.62 0.67 0.65 0.67 0.77 0.81 0.95 0.94 0.94 0.93 1.02 0.95 0.87 0.86 0.89 0.87 0.84 0.84 0.87 0.90 0.90 0.89 0.88 0.84 0.84 0.84 0.84 0.84 0.80
0.59 0.56 0.56 0.67 0.74 0.81 0.77 0.79 0.80 0.77 0.74 0.76 0.75 0.73 0.71 0.71 0.77 0.88 0.90 0.99 0.91 0.89 0.87 0.90 0.91 1.06 0.94 0.86 0.82 0.77 0.80 0.82 0.82 0.82 0.83 0.86 0.94 0.95 0.94 0.91 0.87 0.88 0.78 0.72
0.69 0.64 0.63 0.61 0.71 0.69 0.74 0.77 0.77 0.76 0.78 0.79 0.81 0.84 0.85 0.85 0.82 0.86 0.97 0.98 0.93 0.93 0.93 0.95 0.93 0.94 0.95 0.88 0.88 0.87 0.86 0.87 0.88 0.87 0.84 0.82 0.82 0.85 0.89 0.90 0.88 0.85 0.76 0.69
0.73 0.70 0.65 0.65 0.68 0.75 0.77 0.79 0.75 0.79 0.79 0.79 0.83 0.87 0.90 0.92 0.93 0.86 0.91 0.99 0.96 0.95 0.93 0.94 0.95 0.94 0.91 0.88 0.90 0.91 0.93 0.93 0.96 0.96 0.92 0.81 0.80 0.78 0.77 0.80 0.81 0.76 0.72 0.69
0.78 0.76 0.73 0.70 0.67 0.73 0.75 0.74 0.73 0.72 0.75 0.79 0.84 0.92 0.96 0.96 0.96 0.95 0.93 0.87 0.89 0.91 0.92 0.93 0.95 0.96 0.95 0.93 0.92 0.92 0.94 0.94 0.97 0.94 0.89 0.83 0.85 0.80 0.76 0.73 0.73 0.73 0.71 0.67

GFSNGP_prec_pwat_138.txt.gz
Precipitable_Water
0.32 0.41 0.44 0.44 0.43 0.47 0.47 0.51 0.47 0.52 0.59 0.71 0.85 0.90 0.93 1.00 1.11 1.22 1.37 1.44 1.68 1.75 1.75 1.76 1.80 1.82 1.89 1.91 2.00 1.98 1.68 1.55 1.40 1.38 1.37 1.38 1.43 1.50 1.59 1.63 1.64 1.62 1.57 1.59
0.34 0.43 0.45 0.39 0.40 0.44 0.51 0.57 0.59 0.62 0.63 0.87 0.89 0.99 0.97 0.98 1.04 1.13 1.24 1.40 1.59 1.76 1.81 1.78 1.85 1.85 1.98 1.99 1.96 2.12 2.02 1.72 1.64 1.51 1.50 1.42 1.37 1.42 1.48 1.51 1.62 1.68 1.72 1.78
0.33 0.37 0.37 0.34 0.43 0.48 0.55 0.63 0.63 0.56 0.70 0.93 0.86 0.91 0.96 1.02 1.09 1.05 1.19 1.33 1.47 1.59 1.57 1.65 1.83 1.91 1.86 1.88 1.97 2.08 2.08 1.93 1.83 1.79 1.67 1.55 1.54 1.51 1.52 1.57 1.71 1.78 1.88 1.95
0.31 0.34 0.25 0.41 0.50 0.53 0.54 0.59 0.68 0.71 0.77 0.86 0.85 0.94 1.01 1.06 0.96 1.05 1.20 1.28 1.40 1.45 1.38 1.51 1.75 1.85 1.88 1.88 1.80 1.96 1.91 2.05 1.77 1.92 1.94 1.92 1.85 1.76 1.82 1.89 1.90 1.93 1.95 1.97
0.29 0.27 0.29 0.28 0.55 0.55 0.49 0.55 0.68 0.70 0.76 0.82 0.89 0.89 0.79 0.87 0.95 1.05 1.15 1.29 1.40 1.53 1.48 1.49 1.47 1.67 1.78 1.80 1.88 1.89 1.82 1.99 1.75 2.00 2.00 2.07 1.98 1.88 1.98 2.00 1.89 1.89 1.94 1.97
0.34 0.26 0.22 0.44 0.60 0.73 0.69 0.50 0.73 0.74 0.73 0.77 0.78 0.51 0.58 0.83 0.88 0.99 1.17 1.25 1.35 1.47 1.50 1.50 1.52 1.56 1.63 1.66 1.79 1.92 1.92 2.08 2.04 2.00 1.98 2.03 2.01 2.08 2.08 2.01 1.89 1.93 1.93 2.05
0.32 0.28 0.29 0.53 0.61 0.66 0.42 0.47 0.76 0.75 0.73 0.74 0.63 0.61 0.65 0.77 0.85 1.01 1.15 1.25 1.33 1.34 1.35 1.45 1.58 1.59 1.62 1.69 1.68 1.82 2.00 2.17 2.14 2.13 2.13 2.10 2.04 2.02 1.99 1.94 1.94 1.97 1.91 1.85
0.43 0.37 0.32 0.58 0.54 0.45 0.62 0.76 0.75 0.78 0.76 0.72 0.76 0.71 0.71 0.76 0.82 0.97 1.16 1.24 1.31 1.33 1.36 1.47 1.56 1.53 1.48 1.53 1.74 1.83 1.88 1.92 1.95 2.00 1.99 2.00 2.01 1.99 1.98 1.87 1.74 1.70 1.71 1.69
0.48 0.46 0.57 0.63 0.56 0.65 0.68 0.65 0.67 0.67 0.72 0.73 0.68 0.63 0.68 0.69 0.74 0.82 1.00 1.17 1.29 1.29 1.35 1.43 1.51 1.56 1.53 1.65 1.81 1.82 1.92 1.92 1.76 1.86 1.83 1.80 1.77 1.75 1.70 1.74 1.69 1.60 1.49 1.41
0.53 0.58 0.61 0.65 0.64 0.60 0.62 0.61 0.68 0.70 0.68 0.72 0.66 0.76 0.79 0.81 0.79 0.88 1.00 1.10 1.17 1.18 1.20 1.28 1.39 1.50 1.62 1.66 1.74 1.76 1.73 1.74 1.67 1.68 1.60 1.57 1.58 1.64 1.66 1.63 1.55 1.49 1.43 1.41
0.57 0.60 0.65 0.65 0.64 0.65 0.66 0.68 0.69 0.76 0.75 0.79 0.84 0.90 1.00 0.95 0.86 0.92 0.97 1.08 1.16 1.15 1.17 1.22 1.31 1.36 1.46 1.54 1.57 1.52 1.56 1.56 1.56 1.53 1.48 1.46 1.45 1.48 1.50 1.51 1.53 1.48 1.45 1.41
0.53 0.61 0.56 0.56 0.62 0.65 0.62 0.65 0.76 0.76 0.83 0.84 0.83 0.86 0.96 1.05 1.11 1.03 1.00 1.01 1.03 1.08 1.14 1.16 1.27 1.31 1.35 1.40 1.41 1.38 1.34 1.36 1.41 1.44 1.41 1.41 1.42 1.43 1.52 1.53 1.53 1.52 1.49 1.42
0.64 0.67 0.63 0.62 0.63 0.62 0.59 0.63 0.68 0.71 0.79 0.78 0.86 0.93 0.96 0.97 1.14 1.17 1.11 1.00 0.98 1.00 1.04 1.07 1.16 1.28 1.35 1.38 1.38 1.37 1.36 1.36 1.37 1.39 1.37 1.34 1.33 1.31 1.24 1.34 1.39 1.38 1.33 1.29
0.78 0.74 0.61 0.59 0.52 0.57 0.59 0.64 0.68 0.70 0.72 0.73 0.70 0.83 1.02 1.03 1.09 1.06 1.00 0.95 1.00 0.98 0.98 1.04 1.04 1.03 1.25 1.32 1.31 1.30 1.33 1.33 1.31 1.30 1.26 1.23 1.19 1.15 1.13 1.07 1.01 0.96 0.95 0.90
0.76 0.74 0.56 0.56 0.61 0.63 0.66 0.67 0.68 0.70 0.74 0.73 0.87 0.91 0.99 1.01 0.95 0.93 0.90 0.90 0.95 0.95 0.95 0.97 1.02 1.04 1.11 1.07 1.00 1.00 1.00 1.01 1.02 1.07 1.10 1.07 1.00 0.93 0.88 0.82 0.77 0.76 0.78 0.79
0.73 0.62 0.58 0.55 0.64 0.61 0.61 0.67 0.69 0.77 0.84 0.83 0.83 0.89 0.91 0.94 0.91 0.90 0.90 0.92 0.87 0.84 0.87 0.83 0.88 0.94 1.01 1.00 1.00 0.99 0.95 0.93 0.93 0.93 0.98 0.96 0.95 0.90 0.87 0.80 0.72 0.67 0.64 0.60
0.59 0.56 0.55 0.55 0.59 0.58 0.63 0.69 0.77 0.78 0.86 0.77 0.77 0.87 0.83 0.77 0.75 0.74 0.81 0.90 0.92 0.87 0.86 0.84 0.86 0.92 0.98 0.99 0.95 0.95 0.93 0.91 0.88 0.90 0.89 0.90 0.90 0.87 0.82 0.69 0.63 0.60 0.58 0.60
0.63 0.63 0.65 0.60 0.59 0.60 0.69 0.78 0.78 0.82 0.86 0.76 0.82 0.86 0.82 0.79 0.70 0.75 0.78 0.84 0.90 0.93 0.97 1.00 0.96 0.94 0.94 0.91 0.87 0.78 0.68 0.72 0.73 0.72 0.69 0.66 0.64 0.64 0.67 0.61 0.59 0.60 0.62 0.64
0.68 0.68 0.65 0.63 0.61 0.65 0.72 0.72 0.78 0.82 0.91 0.84 0.86 0.88 0.85 0.76 0.71 0.73 0.78 0.84 0.88 0.88 0.83 0.81 0.71 0.64 0.69 0.74 0.82 0.80 0.68 0.66 0.69 0.73 0.71 0.68 0.63 0.61 0.60 0.62 0.62 0.62 0.63 0.63
0.66 0.63 0.55 0.60 0.62 0.61 0.64 0.70 0.71 0.77 0.80 0.84 0.87 0.81 0.70 0.71 0.71 0.77 0.86 0.83 0.85 0.81 0.78 0.81 0.74 0.67 0.71 0.78 0.83 0.79 0.77 0.77 0.73 0.77 0.77 0.76 0.74 0.73 0.71 0.71 0.69 0.69 0.71 0.72
0.53 0.55 0.60 0.59 0.59 0.60 0.65 0.67 0.69 0.71 0.80 0.83 0.77 0.70 0.60 0.69 0.71 0.76 0.80 0.75 0.77 0.76 0.77 0.81 0.80 0.74 0.67 0.70 0.76 0.79 0.76 0.82 0.88 0.85 0.81 0.80 0.80 0.77 0.75 0.76 0.76 0.76 0.75 0.78
0.55 0.62 0.66 0.66 0.62 0.57 0.61 0.71 0.73 0.73 0.73 0.73 0.72 0.63 0.55 0.58 0.64 0.69 0.72 0.67 0.71 0.74 0.75 0.85 0.90 0.82 0.83 0.87 0.89 0.85 0.84 0.88 0.91 0.86 0.83 0.81 0.82 0.82 0.81 0.82 0.82 0.80 0.80 0.81
0.57 0.64 0.68 0.67 0.64 0.62 0.66 0.74 0.69 0.72 0.73 0.72 0.65 0.56 0.45 0.44 0.53 0.54 0.51 0.62 0.66 0.68 0.77 0.83 0.88 0.90 0.98 0.99 0.93 0.90 0.88 0.82 0.85 0.88 0.89 0.90 0.89 0.88 0.89 0.86 0.85 0.86 0.87 0.86
0.65 0.61 0.63 0.67 0.66 0.66 0.68 0.81 0.82 0.79 0.78 0.71 0.70 0.68 0.61 0.55 0.61 0.66 0.76 0.79 0.83 0.82 0.83 0.88 0.88 0.87 0.98 0.96 0.89 0.82 0.85 0.84 0.81 0.81 0.84 0.89 0.92 0.93 0.93 0.92 0.90 0.90 0.89 0.83
0.80 0.69 0.64 0.65 0.64 0.65 0.73 0.82 0.84 0.82 0.80 0.75 0.79 0.81 0.82 0.80 0.72 0.73 0.79 0.84 0.88 0.90 0.91 0.91 0.94 0.95 0.95 1.04 0.95 0.86 0.81 0.81 0.84 0.85 0.85 0.85 0.86 0.94 0.99 1.00 0.97 0.96 0.94 0.88
0.83 0.78 0.71 0.67 0.66 0.71 0.78 0.82 0.76 0.77 0.79 0.76 0.77 0.83 0.85 0.87 0.86 0.86 0.85 0.87 1.01 1.02 0.92 0.96 0.97 0.96 0.95 0.94 0.91 0.88 0.86 0.87 0.88 0.88 0.90 0.90 0.89 0.86 0.88 0.93 0.96 0.96 0.90 0.85
0.95 0.90 0.84 0.73 0.72 0.72 0.75 0.79 0.77 0.77 0.81 0.81 0.78 0.84 0.84 0.89 0.92 0.90 0.92 0.89 0.90 0.95 0.94 0.93 0.95 0.94 0.92 0.92 0.90 0.89 0.92 0.92 0.91 0.92 0.93 0.90 0.88 0.86 0.82 0.81 0.83 0.83 0.81 0.80

GFSNGP_prec_pwat_141.txt.gz
Precipitable_Water
0.32 0.36 0.39 0.41 0.42 0.44 0.42 0.46 0.42 0.45 0.49 0.60 0.68 0.81 0.90 0.98 1.13 1.19 1.29 1.39 1.48 1.61 1.67 1.66 1.80 1.76 1.70 1.79 1.83 1.73 1.88 1.66 1.61 1.60 1.39 1.38 1.41 1.43 1.53 1.63 1.68 1.76 1.75 1.78
0.35 0.38 0.39 0.39 0.41 0.41 0.43 0.50 0.53 0.55 0.54 0.75 0.85 0.87 0.87 0.95 1.02 1.11 1.27 1.37 1.46 1.63 1.72 1.75 1.81 1.79 1.86 1.89 1.87 1.90 1.90 1.77 1.74 1.63 1.48 1.43 1.41 1.40 1.45 1.51 1.57 1.62 1.60 1.54
0.30 0.38 0.36 0.33 0.39 0.39 0.43 0.52 0.56 0.49 0.59 0.77 0.74 0.73 0.79 0.80 0.96 1.00 1.08 1.25 1.36 1.55 1.76 1.82 1.83 1.94 1.81 1.96 1.96 1.99 1.96 2.05 2.04 1.88 1.63 1.54 1.46 1.38 1.34 1.39 1.53 1.49 1.48 1.55
0.32 0.35 0.25 0.36 0.48 0.50 0.50 0.58 0.62 0.60 0.66 0.79 0.78 0.79 0.86 0.90 0.88 0.88 1.09 1.20 1.40 1.47 1.53 1.52 1.62 1.79 1.87 1.98 1.97 1.96 1.97 2.00 2.07 1.99 1.91 1.85 1.80 1.56 1.45 1.43 1.50 1.62 1.70 1.74
0.30 0.27 0.31 0.32 0.49 0.51 0.48 0.54 0.70 0.64 0.69 0.73 0.79 0.80 0.70 0.84 0.82 0.88 1.02 1.27 1.40 1.55 1.58 1.59 1.55 1.62 1.74 1.83 1.87 1.85 1.88 1.87 1.98 2.12 1.94 1.91 1.96 1.85 1.71 1.67 1.70 1.73 1.87 2.00
0.34 0.28 0.25 0.38 0.59 0.67 0.64 0.46 0.72 0.73 0.71 0.71 0.72 0.47 0.46 0.71 0.83 0.93 1.01 1.18 1.38 1.53 1.56 1.56 1.51 1.52 1.54 1.67 1.71 1.72 1.84 1.80 1.94 1.96 1.87 2.04 2.16 2.08 2.03 2.03 2.01 2.03 1.98 2.01
0.35 0.31 0.32 0.41 0.64 0.77 0.45 0.46 0.73 0.75 0.74 0.73 0.60 0.59 0.66 0.80 0.83 0.93 1.08 1.20 1.35 1.45 1.52 1.63 1.66 1.61 1.51 1.53 1.58 1.75 1.94 2.01 1.99 2.00 1.97 2.05 2.01 2.15 2.15 2.09 2.10 2.04 1.97 1.96
0.40 0.36 0.32 0.57 0.53 0.45 0.53 0.67 0.71 0.74 0.73 0.70 0.68 0.68 0.68 0.71 0.78 0.85 0.94 1.11 1.31 1.35 1.40 1.52 1.59 1.58 1.49 1.48 1.67 1.68 1.77 1.89 2.04 2.02 2.01 2.06 2.00 2.04 2.04 2.03 1.97 1.91 1.85 1.76
0.46 0.45 0.58 0.62 0.54 0.59 0.64 0.62 0.67 0.68 0.66 0.64 0.60 0.57 0.60 0.68 0.78 0.82 0.89 0.98 1.18 1.27 1.37 1.48 1.58 1.56 1.48 1.54 1.66 1.69 1.76 1.73 1.70 1.90 1.87 1.86 1.84 1.87 1.78 1.81 1.72 1.68 1.69 1.68
0.53 0.58 0.60 0.65 0.69 0.71 0.71 0.67 0.67 0.64 0.60 0.61 0.56 0.57 0.63 0.72 0.82 0.84 0.89 1.00 1.06 1.09 1.23 1.31 1.49 1.58 1.60 1.68 1.76 1.79 1.74 1.78 1.66 1.64 1.68 1.77 1.77 1.79 1.76 1.73 1.68 1.63 1.56 1.49
0.57 0.62 0.67 0.70 0.73 0.72 0.69 0.69 0.69 0.72 0.69 0.66 0.66 0.67 0.69 0.74 0.81 0.93 0.89 0.91 1.03 1.08 1.14 1.19 1.34 1.43 1.53 1.62 1.67 1.66 1.68 1.71 1.68 1.68 1.67 1.64 1.62 1.59 1.60 1.65 1.64 1.57 1.55 1.51
0.51 0.61 0.60 0.61 0.70 0.71 0.67 0.64 0.66 0.66 0.67 0.73 0.76 0.75 0.78 0.78 0.85 0.94 1.01 1.00 0.97 1.05 1.10 1.16 1.25 1.30 1.37 1.46 1.51 1.51 1.46 1.50 1.49 1.51 1.50 1.53 1.48 1.47 1.54 1.56 1.57 1.55 1.53 1.50
0.64 0.70 0.69 0.71 0.75 0.76 0.66 0.59 0.62 0.65 0.68 0.70 0.77 0.79 0.82 0.80 0.85 0.92 1.02 1.07 1.00 0.99 1.06 1.10 1.16 1.22 1.33 1.34 1.38 1.39 1.39 1.39 1.40 1.42 1.43 1.44 1.43 1.39 1.36 1.43 1.51 1.49 1.44 1.38
0.75 0.76 0.72 0.77 0.67 0.67 0.62 0.60 0.65 0.67 0.69 0.74 0.78 0.82 0.87 0.86 0.91 0.98 1.09 1.15 1.11 1.01 0.95 0.99 0.98 1.10 1.25 1.34 1.38 1.37 1.36 1.40 1.40 1.40 1.37 1.36 1.34 1.34 1.36 1.32 1.25 1.27 1.33 1.19
0.73 0.75 0.76 0.78 0.76 0.63 0.60 0.61 0.58 0.61 0.68 0.74 0.83 0.81 0.88 0.92 0.99 1.11 1.15 1.15 1.08 0.97 0.94 1.00 0.96 0.99 1.08 1.05 1.10 1.23 1.27 1.29 1.31 1.25 1.21 1.17 1.12 1.10 1.10 1.04 0.93 0.86 0.83 0.86
0.82 0.83 0.81 0.75 0.62 0.53 0.61 0.58 0.55 0.61 0.71 0.81 0.81 0.79 0.90 1.01 1.04 1.02 1.03 0.97 0.81 0.80 0.90 0.92 0.95 0.99 0.98 0.94 0.95 0.95 0.92 0.94 1.04 1.07 1.04 0.98 0.93 0.89 0.85 0.83 0.79 0.78 0.76 0.75
0.77 0.74 0.70 0.56 0.56 0.61 0.58 0.60 0.66 0.71 0.76 0.79 0.74 0.79 0.82 0.83 0.84 0.85 0.88 0.89 0.88 0.91 0.91 0.85 0.88 0.92 0.94 0.95 0.89 0.89 0.88 0.94 0.93 0.91 0.93 0.95 0.91 0.87 0.83 0.77 0.73 0.68 0.64 0.63
0.75 0.69 0.62 0.59 0.63 0.66 0.59 0.65 0.72 0.72 0.74 0.84 0.79 0.78 0.76 0.74 0.74 0.73 0.73 0.81 0.85 0.80 0.81 0.82 0.90 0.93 0.95 0.94 0.94 0.90 0.85 0.83 0.84 0.87 0.86 0.83 0.83 0.80 0.73 0.67 0.64 0.63 0.62 0.63
0.66 0.59 0.60 0.66 0.71 0.70 0.59 0.63 0.67 0.70 0.82 0.87 0.81 0.81 0.82 0.82 0.80 0.77 0.80 0.77 0.76 0.79 0.85 0.96 0.97 0.95 0.93 0.89 0.86 0.85 0.73 0.70 0.70 0.71 0.71 0.73 0.72 0.69 0.67 0.65 0.61 0.60 0.61 0.63
0.61 0.64 0.70 0.70 0.72 0.63 0.58 0.60 0.66 0.76 0.82 0.83 0.83 0.83 0.78 0.79 0.75 0.70 0.71 0.69 0.78 0.86 0.89 0.82 0.77 0.70 0.73 0.76 0.81 0.81 0.76 0.72 0.67 0.67 0.67 0.67 0.69 0.70 0.71 0.71 0.72 0.71 0.71 0.72
0.70 0.66 0.60 0.60 0.62 0.64 0.59 0.62 0.68 0.70 0.79 0.81 0.75 0.72 0.69 0.72 0.69 0.69 0.69 0.71 0.83 0.88 0.84 0.81 0.74 0.68 0.71 0.75 0.80 0.77 0.75 0.75 0.71 0.75 0.84 0.79 0.77 0.78 0.78 0.77 0.78 0.78 0.77 0.75
0.65 0.56 0.55 0.63 0.64 0.64 0.65 0.62 0.68 0.70 0.75 0.76 0.77 0.73 0.67 0.59 0.61 0.61 0.72 0.77 0.80 0.78 0.74 0.74 0.74 0.74 0.69 0.68 0.69 0.70 0.72 0.74 0.81 0.86 0.83 0.83 0.80 0.80 0.81 0.80 0.79 0.81 0.81 0.80
0.66 0.58 0.64 0.67 0.68 0.70 0.71 0.63 0.68 0.71 0.70 0.71 0.70 0.68 0.59 0.53 0.59 0.56 0.55 0.72 0.76 0.74 0.72 0.71 0.80 0.86 0.83 0.85 0.86 0.87 0.87 0.84 0.79 0.80 0.86 0.87 0.86 0.84 0.84 0.85 0.86 0.86 0.84 0.84
0.69 0.62 0.64 0.72 0.72 0.69 0.65 0.66 0.74 0.71 0.74 0.74 0.69 0.66 0.61 0.48 0.54 0.63 0.66 0.71 0.71 0.71 0.71 0.75 0.80 0.84 0.86 0.92 0.94 0.92 0.88 0.85 0.83 0.85 0.87 0.89 0.89 0.88 0.88 0.90 0.91 0.92 0.92 0.91
0.79 0.75 0.64 0.62 0.63 0.61 0.63 0.68 0.77 0.81 0.80 0.77 0.76 0.76 0.77 0.75 0.63 0.62 0.70 0.72 0.78 0.80 0.77 0.80 0.82 0.88 0.87 0.90 0.94 0.92 0.83 0.79 0.80 0.82 0.83 0.86 0.88 0.91 0.93 0.95 0.97 0.98 0.99 0.98
0.86 0.81 0.84 0.71 0.67 0.68 0.66 0.69 0.71 0.79 0.81 0.79 0.79 0.81 0.83 0.83 0.83 0.79 0.74 0.79 0.82 0.81 0.86 0.87 0.88 0.89 0.90 0.90 0.91 0.97 0.95 0.87 0.82 0.81 0.82 0.83 0.85 0.87 0.89 0.93 0.96 0.99 0.99 0.96
0.99 0.98 0.97 0.89 0.76 0.73 0.74 0.70 0.69 0.74 0.82 0.81 0.78 0.82 0.83 0.83 0.83 0.84 0.83 0.80 0.81 0.84 0.92 0.98 0.91 0.94 0.93 0.92 0.91 0.90 0.91 0.93 0.94 0.91 0.89 0.87 0.88 0.88 0.87 0.88 0.89 0.93 0.95 0.93